NV7SW Weather Reports


Display with metric or nautical units.
time (UTC)temp
F
wind
direction
speed
MPH
gust
MPH
rain 1hr
in
rain 24hr
in
rain mn
in
humidity
%
barometer
mb
20260503020006 68 360 2.0 4.0 0.00 0.00 0.00 11 1008.5
20260503014505 68 146 2.0 5.0 0.00 0.00 0.00 11 1008.5
20260503013011 69 155 3.0 8.0 0.00 0.00 0.00 11 1008.6
20260503011502 69 360 3.0 10.0 0.00 0.00 0.00 11 1008.7
20260503010003 70 180 2.0 10.0 0.00 0.00 0.00 11 1008.7
20260503004503 70 360 2.0 10.0 0.00 0.00 0.00 12 1008.7
20260503003100 71 184 1.0 8.0 0.00 0.00 0.00 11 1008.7
20260503001559 70 164 3.0 10.0 0.00 0.00 0.00 11 1008.8
20260502234558 71 124 0.0 7.0 0.00 0.00 0.00 11 1009.0
20260502233058 70 40 1.0 3.0 0.00 0.00 0.00 11 1009.1
20260502231602 70 20 3.0 7.0 0.00 0.00 0.00 11 1009.2
20260502230053 71 249 5.0 10.0 0.00 0.00 0.00 11 1009.4
20260502224551 72 194 6.0 9.0 0.00 0.00 0.00 10 1009.5
20260502223049 73 138 1.0 7.0 0.00 0.00 0.00 12 1009.7
20260502221549 73 178 9.0 18.0 0.00 0.00 0.00 12 1009.9
20260502220047 73 182 8.0 12.0 0.00 0.00 0.00 11 1010.2
20260502214554 72 194 4.0 10.0 0.00 0.00 0.00 12 1010.2
20260502213040 72 127 6.0 11.0 0.00 0.00 0.00 12 1010.8
20260502211538 72 147 6.0 18.0 0.00 0.00 0.00 13 1011.0
20260502210045 70 284 6.0 14.0 0.00 0.00 0.00 13 1011.1
20260502204536 71 196 7.0 12.0 0.00 0.00 0.00 12 1011.3
20260502203035 70 119 3.0 15.0 0.00 0.00 0.00 14 1011.5
20260502201531 70 156 9.0 18.0 0.00 0.00 0.00 14 1011.8
20260502200030 70 127 4.0 15.0 0.00 0.00 0.00 14 1011.9
20260502194532 70 157 5.0 15.0 0.00 0.00 0.00 15 1012.1
20260502193025 69 110 3.0 11.0 0.00 0.00 0.00 15 1012.2
20260502191523 70 114 6.0 11.0 0.00 0.00 0.00 15 1012.4
20260502190025 69 166 5.0 15.0 0.00 0.00 0.00 15 1012.5
20260502184521 68 138 5.0 14.0 0.00 0.00 0.00 16 1012.9
20260502183014 68 143 6.0 15.0 0.00 0.00 0.00 17 1013.2
20260502181526 67 123 4.0 12.0 0.00 0.00 0.00 16 1013.4
20260502163051 56 360 0.0 8.0 0.00 0.00 0.00 24 1014.8
20260502161541 55 360 4.0 11.0 0.00 0.00 0.00 24 1015.0
20260502151533 49 360 2.0 6.0 0.00 0.00 0.00 32 1015.1
20260502123005 34 331 0.0 2.0 0.00 0.00 0.00 45 1014.1
20260502121600 35 320 0.0 2.0 0.00 0.00 0.00 42 1014.1
20260502114601 35 68 2.0 3.0 0.00 0.00 0.00 45 1013.8
20260502113059 35 141 0.0 3.0 0.00 0.00 0.00 44 1013.9
20260502111558 37 141 1.0 3.0 0.00 0.00 0.00 41 1013.9
20260502110053 37 110 1.0 3.0 0.00 0.00 0.00 40 1013.9
20260502104549 37 355 1.0 3.0 0.00 0.00 0.00 41 1013.9
20260502103054 37 336 2.0 3.0 0.00 0.00 0.00 43 1013.9
20260502101557 37 232 0.0 1.0 0.00 0.00 0.00 43 1013.9
20260502100107 37 232 0.0 2.0 0.00 0.00 0.00 40 1013.9
20260502091531 41 360 2.0 4.0 0.00 0.00 0.00 36 1013.6
20260502071515 45 360 2.0 8.0 0.00 0.00 0.00 30 1014.0
20260502070011 46 360 3.0 5.0 0.00 0.00 0.00 29 1013.9
20260502064511 47 360 3.0 4.0 0.00 0.00 0.00 28 1013.8
20260502063010 48 273 2.0 4.0 0.00 0.00 0.00 27 1013.7
20260502061516 49 289 4.0 7.0 0.00 0.00 0.00 25 1013.6
20260502060009 49 297 6.0 8.0 0.00 0.00 0.00 25 1013.5
20260502054509 49 282 4.0 9.0 0.00 0.00 0.00 25 1013.4
20260502053008 51 360 2.0 4.0 0.00 0.00 0.00 25 1013.1
20260502051519 52 360 4.0 9.0 0.00 0.00 0.00 23 1013.1
20260502050008 54 360 2.0 5.0 0.00 0.00 0.00 21 1012.8
20260502044507 54 360 3.0 5.0 0.00 0.00 0.00 21 1012.7
20260502043006 54 360 3.0 5.0 0.00 0.00 0.00 21 1012.7
20260502041517 53 360 4.0 6.0 0.00 0.00 0.00 22 1012.6
20260502040012 53 360 3.0 6.0 0.00 0.00 0.00 23 1012.5
20260502034507 53 360 4.0 6.0 0.00 0.00 0.00 22 1012.4
20260502033004 55 360 4.0 6.0 0.00 0.00 0.00 20 1012.2
20260502031504 58 360 4.0 6.0 0.00 0.00 0.00 19 1012.0
20260502030004 61 360 3.0 5.0 0.00 0.00 0.00 17 1011.8
20260502024503 63 360 2.0 3.0 0.00 0.00 0.00 15 1011.8
20260502023002 64 97 0.0 0.0 0.00 0.00 0.00 14 1011.7
20260502021502 64 83 1.0 5.0 0.00 0.00 0.00 14 1011.7